EHI
5 5 4 3 4 4 3 2 1 0 0 0 0 0 0 0 0 0 0 0 0 0 0 0 0 0 0 0 0 0 0 0 0 0 0 0 0 0
5 4 3 2 2 1 1 1 0 0 0 0 0 0 0 0 0 0 0 0 0 0 0 0 0 0 0 0 0 0 0 0 0 0 0 0 0 0
3 2 2 1 0 0 1 1 0 0 0 0 0 0 0 0 0 0 0 0 0 0 0 0 0 0 0 0 0 0 0 0 0 0 0 0 0 0
1 0 0 0 0 0 1 1 0 0 0 0 0 0 0 0 0 0 0 0 0 0 0 0 0 0 0 0 0 0 0 0 0 0 0 0 0 0
0 0 0 0 0 0 0 0 0 0 0 0 0 0 0 0 0 0 0 0 0 0 0 0 0 0 0 0 0 0 0 0 0 0 0 0 0 0
0 0 0 0 0 0 0 0 0 0 0 0 0 0 0 0 0 0 0 0 0 0 0 0 0 0 0 0 0 0 0 0 0 0 0 0 0 0
0 0 0 0 0 0 0 0 0 0 0 0 0 0 0 0 0 0 0 0 0 0 0 0 0 0 0 0 0 0 0 0 0 0 0 0 0 0
0 0 0 0 0 0 0 0 0 0 0 1 1 1 0 0 0 0 0 0 0 0 0 0 0 0 0 0 0 0 0 0 0 0 0 0 0 0
0 0 0 0 0 0 0 0 0 0 0 1 2 2 1 0 0 0 0 1 1 1 0 0 0 0 0 0 0 0 0 0 0 0 0 0 0 0
0 0 0 0 0 0 0 0 0 0 0 1 1 1 1 0 0 0 1 2 2 1 0 0 0 0 0 0 0 0 0 0 0 0 0 0 0 0
0 0 0 0 0 0 0 1 1 0 0 0 0 0 0 0 0 0 1 2 2 0 0 0 0 0 0 0 0 0 0 0 0 0 0 0 0 0
0 0 0 0 0 0 0 1 1 0 0 0 0 0 0 0 0 1 1 2 2 1 0 0 0 0 0 0 0 0 0 0 0 0 0 0 0 0
1 1 1 1 0 0 0 1 1 0 0 0 0 1 1 0 0 1 2 2 3 2 1 0 0 0 0 0 0 0 0 0 0 0 0 0 0 0
2 1 1 1 0 0 0 0 0 0 0 0 0 2 2 1 1 3 3 3 3 3 1 0 0 0 0 0 0 0 0 0 0 0 0 0 0 0
2 1 0 0 0 0 0 0 0 0 0 0 0 2 3 3 3 4 4 3 3 3 2 1 0 0 0 0 0 0 0 0 0 0 0 0 0 0
1 0 0 0 0 0 0 0 0 0 0 0 0 2 3 4 4 4 3 3 3 3 2 1 0 0 0 0 0 0 0 0 0 0 0 0 0 0
0 0 0 0 0 0 0 0 0 0 0 0 0 1 1 2 3 3 3 3 2 1 1 1 0 0 0 0 0 0 0 0 0 0 0 0 0 0
0 0 0 0 0 0 0 0 0 0 0 0 0 0 0 1 2 2 3 2 1 0 0 0 0 0 0 0 0 0 0 0 0 0 0 0 0 0
0 0 0 0 0 0 0 0 0 0 0 0 0 0 0 0 1 1 1 1 1 0 0 0 0 0 0 0 0 0 0 0 0 0 0 0 0 0
0 0 0 0 0 0 0 0 0 0 0 0 0 0 0 0 0 0 0 0 0 0 0 0 0 0 0 0 0 0 0 0 0 0 0 0 0 0
0 0 0 0 0 0 0 0 0 0 0 0 0 0 0 0 0 0 0 0 0 0 0 0 0 0 0 0 0 0 0 0 0 0 0 0 0 0
0 0 0 0 0 0 0 0 0 0 0 0 0 0 0 0 0 0 0 0 0 0 0 0 0 0 0 0 0 0 0 0 0 0 0 0 0 0
0 0 0 0 0 0 0 0 0 0 0 0 0 0 0 0 0 0 0 0 0 0 0 0 0 0 0 0 0 0 0 0 0 0 0 0 0 0
Wind_Speed
3 4 4 3 3 3 4 4 5 5 4 2 2 2 3 3 2 4 5 3 4 6 6 6 6 6 7 7 7 7 7 8 9 9 10 10 11 11
2 2 3 3 3 3 3 3 4 5 5 2 3 2 3 4 2 5 6 5 7 7 6 6 7 7 8 8 8 8 8 9 9 10 10 11 11 11
3 3 4 3 3 3 3 3 3 4 5 4 3 2 3 5 4 5 6 6 5 7 7 7 8 8 8 9 9 9 9 10 10 11 11 12 12 12
3 3 3 3 3 4 3 3 3 4 5 5 4 3 4 4 4 6 5 5 5 5 8 9 9 9 9 9 10 10 10 10 10 11 11 12 12 12
3 3 4 3 4 3 4 4 4 3 4 5 5 3 4 3 5 5 5 5 6 4 7 10 10 10 10 10 9 9 9 9 9 10 10 11 12 12
4 4 4 4 4 4 4 4 4 4 4 5 4 3 3 3 4 5 4 4 5 5 4 5 8 11 11 11 10 10 10 9 9 10 10 11 11 11
4 4 4 3 3 4 4 3 4 5 4 4 4 4 3 3 4 5 5 5 4 4 5 5 5 6 7 10 11 11 10 10 10 10 11 11 11 11
4 4 4 4 4 5 5 5 5 6 5 5 5 4 4 5 4 6 6 6 5 3 5 5 5 5 5 5 5 9 10 10 11 11 11 11 11 12
4 4 4 2 4 4 5 7 7 7 7 7 7 6 6 5 6 7 6 7 7 5 5 6 5 5 5 3 5 8 9 10 11 11 11 11 11 12
4 4 4 4 3 4 5 5 6 5 6 7 6 7 7 6 6 7 8 8 8 5 5 7 5 5 5 4 5 8 9 10 11 11 11 11 12 12
5 4 4 4 2 3 6 6 6 5 5 6 7 7 7 7 7 6 6 6 6 4 3 6 6 6 6 5 4 7 9 10 11 11 11 11 11 11
4 4 4 4 3 4 6 6 7 6 5 5 6 8 9 8 9 8 7 7 6 5 3 4 5 5 5 4 4 4 5 7 9 10 10 11 10 9
3 3 2 5 5 6 7 7 6 7 7 6 6 6 6 5 6 6 6 7 7 6 4 4 5 5 5 5 4 4 4 4 4 6 8 10 10 10
4 3 1 4 5 7 7 5 6 7 7 6 6 6 5 5 5 5 6 7 7 8 7 6 6 6 6 6 5 3 4 4 4 4 4 6 9 11
3 2 2 4 6 7 9 8 7 6 6 6 6 6 5 5 5 5 6 6 8 8 7 7 7 7 6 6 6 4 4 4 4 4 4 4 4 5
5 4 7 9 8 7 5 6 6 5 5 6 6 6 5 5 5 4 4 4 5 5 5 6 7 7 7 7 5 5 4 5 5 4 4 5 4 5
4 5 4 4 4 4 4 4 4 4 5 6 6 6 5 5 4 4 4 5 5 5 4 3 4 4 6 6 5 5 5 5 4 4 4 5 4 4
5 5 4 4 4 4 4 4 4 4 4 5 5 5 5 5 5 4 4 5 5 5 4 3 3 3 3 3 4 6 5 5 4 4 5 5 5 4
5 4 4 4 4 4 4 4 4 4 4 5 5 5 5 5 5 4 4 4 4 5 4 3 3 3 4 4 3 4 5 4 4 4 4 4 4 3
5 5 4 4 4 4 4 4 4 4 4 4 4 4 5 5 5 4 4 4 5 5 4 4 3 3 4 5 4 3 4 5 4 4 4 3 3 2
4 4 4 4 4 4 4 4 4 4 4 4 4 4 5 5 4 4 4 3 5 5 4 4 3 4 5 4 4 3 2 3 3 4 5 4 4 3
4 4 4 4 4 4 4 4 4 4 4 4 4 4 4 4 5 5 5 4 4 4 5 4 2 3 3 3 4 4 3 2 3 3 3 4 5 4
4 4 4 4 4 3 4 4 5 4 4 4 4 4 4 4 4 4 4 4 4 4 4 4 3 2 3 4 4 4 4 3 2 2 2 4 6 5
Wind_Direction
230 233 253 259 268 267 264 269 277 282 276 246 260 265 273 272 253 261 266 197 218 229 236 241 243 246 244 245 245 244 243 243 243 241 243 247 247 245
245 245 256 257 260 261 258 259 264 275 283 283 280 296 299 283 245 267 264 213 218 218 226 233 236 245 248 243 244 246 244 244 244 244 246 248 247 247
238 230 239 257 256 261 257 256 258 264 269 280 294 306 288 285 285 275 266 257 222 198 215 228 233 241 246 246 246 246 245 245 246 247 249 250 249 245
230 236 243 236 239 255 262 261 264 272 272 281 285 285 283 282 284 276 273 267 266 194 206 222 231 235 240 244 244 241 240 241 244 247 250 250 246 241
232 236 243 246 248 252 257 259 260 256 262 267 271 279 277 280 280 270 265 269 269 224 210 216 224 230 235 238 238 236 237 238 240 244 248 249 243 237
235 236 240 243 250 256 252 256 265 267 255 257 265 267 272 284 282 281 275 265 272 272 262 248 222 221 227 229 229 230 233 236 239 241 244 245 241 235
236 240 237 242 269 270 275 272 267 268 266 266 267 269 282 296 292 291 288 284 269 266 272 262 239 235 226 222 222 227 232 235 237 239 240 238 233 229
240 247 238 221 214 221 248 270 276 269 279 281 278 286 290 289 293 289 292 290 285 279 281 275 260 251 245 243 205 206 222 232 236 238 238 235 230 227
245 247 254 240 227 241 225 228 243 246 257 273 283 289 289 293 292 287 287 290 292 295 283 277 269 266 261 251 188 205 218 229 236 239 238 233 230 228
246 247 252 259 254 262 262 254 253 245 241 246 265 277 286 294 284 279 280 274 268 259 266 277 277 276 275 262 198 211 222 230 236 239 239 234 230 229
240 240 245 252 243 258 260 263 262 259 231 234 253 265 278 276 275 275 274 274 280 279 275 280 286 288 278 269 233 211 224 231 235 236 238 238 234 232
232 225 210 239 237 240 255 261 264 270 275 249 241 245 251 247 234 252 270 275 281 282 279 276 282 287 281 272 271 246 232 232 236 237 237 237 232 235
246 240 200 179 220 241 258 261 273 283 274 265 261 259 255 252 247 246 259 269 275 279 285 272 279 276 274 280 274 269 266 263 245 238 232 229 225 232
262 268 207 172 219 236 247 260 268 271 267 267 267 269 270 267 263 258 253 259 265 272 279 273 273 274 274 277 279 274 274 275 269 265 256 218 223 227
277 314 288 238 248 238 232 239 246 252 262 265 269 273 275 275 273 261 251 250 255 255 254 256 263 268 268 270 277 282 283 279 269 267 264 254 243 230
250 235 223 228 243 258 242 226 238 254 265 270 276 276 275 267 263 268 267 259 261 259 248 251 258 266 268 269 272 276 276 274 273 269 268 265 255 250
269 257 254 249 249 249 256 259 252 241 244 260 268 271 272 273 272 267 267 270 271 277 279 263 250 247 263 271 273 276 276 274 276 278 268 263 257 252
252 256 263 269 272 278 280 274 263 259 262 265 269 274 276 278 278 275 271 272 277 283 287 288 276 256 257 259 260 274 280 282 281 271 265 261 260 260
241 259 268 274 278 282 282 283 283 279 275 270 273 277 277 277 279 278 275 279 283 286 288 286 279 280 285 289 274 242 275 283 282 272 263 265 272 277
248 262 269 272 275 279 283 288 289 283 276 277 277 281 281 278 278 282 280 285 289 290 288 282 281 287 287 291 295 283 241 267 274 278 274 263 262 262
257 265 270 275 278 281 285 288 290 290 290 283 279 280 281 279 279 282 282 278 276 282 287 290 301 275 275 279 279 283 268 219 270 285 288 277 272 261
261 266 275 283 282 283 284 285 286 287 284 275 277 276 276 276 279 282 285 282 276 283 290 293 282 263 265 269 278 286 283 246 211 230 275 286 286 283
269 274 275 273 271 274 280 285 286 287 289 288 282 277 274 272 273 274 274 277 283 289 291 293 292 278 272 271 280 288 287 278 261 237 227 216 225 243